Location: Unspecified
(17.6330°N, 0.0000°E)
Time: 23:46:48
(UTC+00:00)

A-11 Canister half - Pass Details

Date: 20 June 2019
Orbit: 1514 x 1685 km, 47.2° (Epoch: 19 July)

Event Time Altitude Azimuth Distance (km) Brightness Sun altitude
Rises 16:29:18 0° 329° (NNW) 4,738 12.3 27.6°
Reaches altitude 10° 16:33:29 10° 344° (NNW) 3,726 11.6 26.6°
Maximum altitude 16:40:14 22° 31° (NNE) 2,885 10.5 25.1°
Drops below altitude 10° 16:46:53 10° 78° (ENE) 3,671 10.6 23.6°
Sets 16:50:55 0° 94° (E) 4,648 11.0 22.7°
